Time,TemperatureF,DewpointF,PressureIn,WindDirection,WindDirectionDegrees,WindSpeedMPH,WindSpeedGustMPH,Humidity,HourlyPrecipIn,Conditions,Clouds,dailyrainin,SoftwareType,DateUTC
2013-08-29 00:02:00,67.4,63.1,29.95,South,187,1.0,2.0,86,0.00,,,0.00,WeatherCatV1.21B27,2013-08-29 07:02:00,
2013-08-29 00:07:00,67.2,62.9,29.95,SSE,166,0.0,1.0,86,0.00,,,0.00,WeatherCatV1.21B27,2013-08-29 07:07:00,
2013-08-29 00:12:00,67.2,63.5,29.94,SSE,165,0.0,1.0,88,0.00,,,0.00,WeatherCatV1.21B27,2013-08-29 07:12:00,
2013-08-29 00:17:00,66.9,63.5,29.94,SSE,165,0.0,0.0,89,0.00,,,0.00,WeatherCatV1.21B27,2013-08-29 07:17:00,
2013-08-29 00:22:00,66.7,63.7,29.94,SSE,165,0.0,0.0,90,0.00,,,0.00,WeatherCatV1.21B27,2013-08-29 07:22:00,
2013-08-29 00:27:00,66.5,63.8,29.94,SSE,165,0.0,0.0,91,0.00,,,0.00,WeatherCatV1.21B27,2013-08-29 07:27:00,
2013-08-29 00:32:00,66.4,63.7,29.94,SSE,165,0.0,0.0,91,0.00,,,0.00,WeatherCatV1.21B27,2013-08-29 07:32:00,
2013-08-29 00:37:00,66.2,63.8,29.94,SSE,152,0.0,0.0,92,0.00,,,0.00,WeatherCatV1.21B27,2013-08-29 07:37:00,
2013-08-29 00:42:00,66.0,63.6,29.94,SSE,150,0.0,0.0,92,0.00,,,0.00,WeatherCatV1.21B27,2013-08-29 07:42:00,
2013-08-29 00:47:00,65.8,63.4,29.94,SSE,150,0.0,0.0,92,0.00,,,0.00,WeatherCatV1.21B27,2013-08-29 07:47:00,
2013-08-29 00:52:00,65.7,63.6,29.94,SSE,150,0.0,0.0,93,0.00,,,0.00,WeatherCatV1.21B27,2013-08-29 07:52:00,
2013-08-29 00:57:00,65.6,63.5,29.94,SSE,150,0.0,0.0,93,0.00,,,0.00,WeatherCatV1.21B27,2013-08-29 07:57:00,
2013-08-29 01:02:00,65.6,63.5,29.95,SSW,208,1.0,2.0,93,0.00,,,0.00,WeatherCatV1.21B27,2013-08-29 08:02:00,
2013-08-29 01:07:00,65.6,63.5,29.95,SSW,202,1.0,2.0,93,0.00,,,0.00,WeatherCatV1.21B27,2013-08-29 08:07:00,
2013-08-29 01:12:00,65.5,63.4,29.95,SW,215,0.0,0.0,93,0.00,,,0.00,WeatherCatV1.21B27,2013-08-29 08:12:00,
2013-08-29 01:17:00,65.5,63.4,29.95,SW,218,0.0,0.0,93,0.00,,,0.00,WeatherCatV1.21B27,2013-08-29 08:17:00,
2013-08-29 01:22:00,65.4,63.3,29.95,SW,218,0.0,1.0,93,0.00,,,0.00,WeatherCatV1.21B27,2013-08-29 08:22:00,
2013-08-29 01:27:00,65.5,63.4,29.95,WSW,252,1.0,1.0,93,0.00,,,0.00,WeatherCatV1.21B27,2013-08-29 08:27:00,
2013-08-29 01:32:00,65.4,63.3,29.95,WSW,255,0.0,1.0,93,0.00,,,0.00,WeatherCatV1.21B27,2013-08-29 08:32:00,
2013-08-29 01:37:00,65.4,63.3,29.95,WSW,255,0.0,0.0,93,0.00,,,0.00,WeatherCatV1.21B27,2013-08-29 08:37:00,
2013-08-29 01:42:00,65.4,63.3,29.95,WSW,255,0.0,0.0,93,0.00,,,0.00,WeatherCatV1.21B27,2013-08-29 08:42:00,
2013-08-29 01:47:00,65.4,63.6,29.94,NE,39,0.0,0.0,94,0.00,,,0.00,WeatherCatV1.21B27,2013-08-29 08:47:00,
2013-08-29 01:52:00,65.3,63.5,29.94,NE,36,0.0,0.0,94,0.00,,,0.00,WeatherCatV1.21B27,2013-08-29 08:52:00,
2013-08-29 01:57:00,65.1,63.3,29.94,NE,37,0.0,0.0,94,0.00,,,0.00,WeatherCatV1.21B27,2013-08-29 08:57:00,
2013-08-29 02:02:00,65.0,63.2,29.95,NE,39,0.0,0.0,94,0.00,,,0.01,WeatherCatV1.21B27,2013-08-29 09:02:00,
2013-08-29 02:07:00,65.0,63.2,29.95,NE,37,0.0,0.0,94,0.00,,,0.01,WeatherCatV1.21B27,2013-08-29 09:07:00,
2013-08-29 02:12:00,64.9,63.1,29.95,NE,37,0.0,0.0,94,0.00,,,0.01,WeatherCatV1.21B27,2013-08-29 09:12:00,
2013-08-29 02:17:00,64.9,63.1,29.95,NE,37,0.0,0.0,94,0.00,,,0.01,WeatherCatV1.21B27,2013-08-29 09:17:00,
2013-08-29 02:22:00,64.9,63.4,29.95,NE,38,0.0,0.0,95,0.00,,,0.01,WeatherCatV1.21B27,2013-08-29 09:22:00,
2013-08-29 02:27:00,64.9,63.4,29.94,NE,39,0.0,0.0,95,0.00,,,0.01,WeatherCatV1.21B27,2013-08-29 09:27:00,
2013-08-29 02:32:00,64.9,63.4,29.94,NE,53,0.0,0.0,95,0.00,,,0.01,WeatherCatV1.21B27,2013-08-29 09:32:00,
2013-08-29 02:37:00,64.8,63.3,29.93,North,9,0.0,0.0,95,0.00,,,0.01,WeatherCatV1.21B27,2013-08-29 09:37:00,
2013-08-29 02:42:00,64.8,63.3,29.93,WNW,298,0.0,0.0,95,0.00,,,0.01,WeatherCatV1.21B27,2013-08-29 09:42:00,
2013-08-29 02:47:00,64.8,63.3,29.94,WSW,239,0.0,0.0,95,0.00,,,0.02,WeatherCatV1.21B27,2013-08-29 09:47:00,
2013-08-29 02:52:00,64.7,63.2,29.94,SSW,201,0.0,0.0,95,0.00,,,0.02,WeatherCatV1.21B27,2013-08-29 09:52:00,
2013-08-29 02:57:00,64.7,63.2,29.94,SE,133,1.0,1.0,95,0.00,,,0.02,WeatherCatV1.21B27,2013-08-29 09:57:00,
2013-08-29 03:02:00,64.6,63.1,29.94,East,92,1.0,2.0,95,0.00,,,0.02,WeatherCatV1.21B27,2013-08-29 10:02:00,
2013-08-29 03:07:00,64.5,63.0,29.94,SE,136,0.0,1.0,95,0.00,,,0.03,WeatherCatV1.21B27,2013-08-29 10:07:00,
2013-08-29 03:12:00,64.5,63.0,29.94,SE,136,0.0,0.0,95,0.00,,,0.03,WeatherCatV1.21B27,2013-08-29 10:12:00,
2013-08-29 03:17:00,64.4,62.9,29.94,ESE,105,1.0,2.0,95,0.00,,,0.03,WeatherCatV1.21B27,2013-08-29 10:17:00,
2013-08-29 03:22:00,64.4,63.2,29.95,ESE,105,0.0,0.0,96,0.04,,,0.04,WeatherCatV1.21B27,2013-08-29 10:22:00,
2013-08-29 03:27:00,64.4,63.2,29.95,SE,131,0.0,0.0,96,0.04,,,0.04,WeatherCatV1.21B27,2013-08-29 10:27:00,
2013-08-29 03:32:00,64.4,63.2,29.94,SE,131,0.0,0.0,96,0.04,,,0.04,WeatherCatV1.21B27,2013-08-29 10:32:00,
2013-08-29 03:38:00,64.3,63.1,29.94,SE,131,0.0,0.0,96,0.05,,,0.05,WeatherCatV1.21B27,2013-08-29 10:38:00,
2013-08-29 03:43:00,64.4,63.2,29.94,ESE,102,0.0,0.0,96,0.07,,,0.06,WeatherCatV1.21B27,2013-08-29 10:43:00,
2013-08-29 03:48:00,64.3,63.1,29.94,ENE,72,1.0,1.0,96,0.07,,,0.06,WeatherCatV1.21B27,2013-08-29 10:48:00,
2013-08-29 03:53:00,64.3,63.1,29.94,ENE,57,1.0,2.0,96,0.07,,,0.07,WeatherCatV1.21B27,2013-08-29 10:53:00,
2013-08-29 03:58:00,64.3,63.1,29.94,ESE,111,2.0,3.0,96,0.07,,,0.07,WeatherCatV1.21B27,2013-08-29 10:58:00,
2013-08-29 04:03:00,64.3,63.1,29.94,ESE,104,1.0,2.0,96,0.05,,,0.07,WeatherCatV1.21B27,2013-08-29 11:03:00,
2013-08-29 04:08:00,64.3,63.1,29.93,ESE,109,2.0,2.0,96,0.04,,,0.07,WeatherCatV1.21B27,2013-08-29 11:08:00,
2013-08-29 04:13:00,64.3,63.1,29.93,ENE,60,1.0,2.0,96,0.00,,,0.07,WeatherCatV1.21B27,2013-08-29 11:13:00,
2013-08-29 04:18:00,64.3,63.1,29.93,ENE,60,0.0,3.0,96,0.00,,,0.08,WeatherCatV1.21B27,2013-08-29 11:18:00,
2013-08-29 04:23:00,64.3,63.1,29.94,SE,133,0.0,1.0,96,0.11,,,0.09,WeatherCatV1.21B27,2013-08-29 11:23:00,
2013-08-29 04:28:00,64.3,63.1,29.94,ESE,103,1.0,2.0,96,0.14,,,0.10,WeatherCatV1.21B27,2013-08-29 11:28:00,
2013-08-29 04:33:00,64.3,63.1,29.94,ENE,72,2.0,5.0,96,0.31,,,0.12,WeatherCatV1.21B27,2013-08-29 11:33:00,
2013-08-29 04:38:00,64.3,63.1,29.93,ENE,69,2.0,4.0,96,0.21,,,0.14,WeatherCatV1.21B27,2013-08-29 11:38:00,
2013-08-29 04:43:00,64.3,63.1,29.94,SE,128,1.0,4.0,96,0.11,,,0.15,WeatherCatV1.21B27,2013-08-29 11:43:00,
2013-08-29 04:48:00,64.3,63.1,29.94,East,92,1.0,5.0,96,0.20,,,0.16,WeatherCatV1.21B27,2013-08-29 11:48:00,
2013-08-29 04:53:00,64.3,63.1,29.93,ENE,77,2.0,2.0,96,0.17,,,0.18,WeatherCatV1.21B27,2013-08-29 11:53:00,
2013-08-29 04:58:00,64.3,63.1,29.92,East,86,2.0,4.0,96,0.27,,,0.20,WeatherCatV1.21B27,2013-08-29 11:58:00,
2013-08-29 05:03:00,64.3,63.1,29.92,ENE,57,3.0,5.0,96,0.14,,,0.21,WeatherCatV1.21B27,2013-08-29 12:03:00,
2013-08-29 05:08:00,64.3,63.1,29.92,ENE,78,2.0,4.0,96,0.10,,,0.22,WeatherCatV1.21B27,2013-08-29 12:08:00,
2013-08-29 05:13:00,64.3,63.1,29.92,ESE,114,2.0,4.0,96,0.20,,,0.24,WeatherCatV1.21B27,2013-08-29 12:13:00,
2013-08-29 05:18:00,64.3,63.1,29.93,SSE,159,1.0,6.0,96,0.12,,,0.25,WeatherCatV1.21B27,2013-08-29 12:18:00,
2013-08-29 05:23:00,64.3,63.1,29.93,ESE,122,3.0,3.0,96,0.11,,,0.26,WeatherCatV1.21B27,2013-08-29 12:23:00,
2013-08-29 05:28:00,64.3,63.1,29.92,NE,47,2.0,3.0,96,0.17,,,0.27,WeatherCatV1.21B27,2013-08-29 12:28:00,
2013-08-29 05:33:00,64.3,63.1,29.91,NE,47,3.0,4.0,96,0.14,,,0.28,WeatherCatV1.21B27,2013-08-29 12:33:00,
2013-08-29 05:38:00,64.2,63.0,29.92,ESE,123,1.0,3.0,96,0.13,,,0.29,WeatherCatV1.21B27,2013-08-29 12:38:00,
2013-08-29 05:43:00,64.1,62.9,29.92,SE,133,0.0,3.0,96,0.06,,,0.29,WeatherCatV1.21B27,2013-08-29 12:43:00,
2013-08-29 05:48:00,64.1,62.9,29.92,East,88,2.0,3.0,96,0.05,,,0.30,WeatherCatV1.21B27,2013-08-29 12:48:00,
2013-08-29 05:53:00,64.0,62.8,29.92,ENE,77,2.0,2.0,96,0.27,,,0.32,WeatherCatV1.21B27,2013-08-29 12:53:00,
2013-08-29 05:58:00,64.0,62.8,29.92,SE,124,1.0,1.0,96,0.21,,,0.34,WeatherCatV1.21B27,2013-08-29 12:58:00,
2013-08-29 06:03:00,64.0,62.8,29.93,SSE,153,0.0,3.0,96,0.10,,,0.34,WeatherCatV1.21B27,2013-08-29 13:03:00,
2013-08-29 06:08:00,64.0,62.8,29.92,ENE,60,2.0,3.0,96,0.06,,,0.35,WeatherCatV1.21B27,2013-08-29 13:08:00,
2013-08-29 06:13:00,64.0,62.8,29.91,ENE,57,1.0,2.0,96,0.06,,,0.35,WeatherCatV1.21B27,2013-08-29 13:13:00,
2013-08-29 06:18:00,63.9,62.7,29.92,SE,124,1.0,3.0,96,0.22,,,0.38,WeatherCatV1.21B27,2013-08-29 13:18:00,
2013-08-29 06:23:00,63.6,62.4,29.92,ESE,111,1.0,2.0,96,0.17,,,0.39,WeatherCatV1.21B27,2013-08-29 13:23:00,
2013-08-29 06:28:00,63.1,63.1,29.92,SE,143,2.0,2.0,100,0.17,,,0.39,WeatherCatV1.21B27,2013-08-29 13:28:00,
2013-08-29 06:33:00,63.1,63.1,29.91,SE,143,2.0,2.0,100,0.17,,,0.39,WeatherCatV1.21B27,2013-08-29 13:33:00,
2013-08-29 06:38:00,-999.0,-99.9,29.91,North,-999,-999.0,0.0,-999,0.00,,,0.39,WeatherCatV1.21B27,2013-08-29 13:38:00,
2013-08-29 06:43:00,-999.0,-99.9,29.91,North,-999,-999.0,0.0,-999,0.00,,,0.39,WeatherCatV1.21B27,2013-08-29 13:43:00,
2013-08-29 06:48:00,-999.0,-99.9,29.92,North,-999,-999.0,0.0,-999,0.00,,,0.39,WeatherCatV1.21B27,2013-08-29 13:48:00,
2013-08-29 06:53:00,-999.0,-99.9,29.92,North,-999,-999.0,0.0,-999,0.00,,,0.39,WeatherCatV1.21B27,2013-08-29 13:53:00,
2013-08-29 06:58:00,-999.0,-99.9,29.91,North,-999,-999.0,0.0,-999,0.00,,,0.39,WeatherCatV1.21B27,2013-08-29 13:58:00,
2013-08-29 07:03:00,-999.0,-99.9,29.91,North,-999,-999.0,0.0,-999,0.00,,,0.39,WeatherCatV1.21B27,2013-08-29 14:03:00,
2013-08-29 07:08:00,-999.0,-99.9,29.90,North,-999,-999.0,0.0,-999,0.00,,,0.39,WeatherCatV1.21B27,2013-08-29 14:08:00,
2013-08-29 07:13:00,-999.0,-99.9,29.91,North,-999,-999.0,0.0,-999,0.00,,,0.39,WeatherCatV1.21B27,2013-08-29 14:13:00,
2013-08-29 07:18:00,-999.0,-99.9,29.91,North,-999,-999.0,0.0,-999,0.00,,,0.39,WeatherCatV1.21B27,2013-08-29 14:18:00,
2013-08-29 07:23:00,-999.0,-99.9,29.91,North,-999,-999.0,0.0,-999,0.00,,,0.39,WeatherCatV1.21B27,2013-08-29 14:23:00,
2013-08-29 07:28:00,-999.0,-99.9,29.91,North,-999,-999.0,0.0,-999,0.00,,,0.39,WeatherCatV1.21B27,2013-08-29 14:28:00,
2013-08-29 07:33:00,-999.0,-99.9,29.91,North,-999,-999.0,0.0,-999,0.00,,,0.39,WeatherCatV1.21B27,2013-08-29 14:33:00,
2013-08-29 07:38:00,-999.0,-99.9,29.90,North,-999,-999.0,0.0,-999,0.00,,,0.39,WeatherCatV1.21B27,2013-08-29 14:38:00,
2013-08-29 07:43:00,-999.0,-99.9,29.91,North,-999,-999.0,0.0,-999,0.00,,,0.39,WeatherCatV1.21B27,2013-08-29 14:43:00,
2013-08-29 07:48:00,-999.0,-99.9,29.89,North,-999,-999.0,0.0,-999,0.00,,,0.39,WeatherCatV1.21B27,2013-08-29 14:48:00,
2013-08-29 07:53:00,-999.0,-99.9,29.92,North,-999,-999.0,0.0,-999,0.00,,,0.39,WeatherCatV1.21B27,2013-08-29 14:53:00,
2013-08-29 07:58:00,-999.0,-99.9,29.92,North,-999,-999.0,0.0,-999,0.00,,,0.39,WeatherCatV1.21B27,2013-08-29 14:58:00,
2013-08-29 08:03:00,-999.0,-99.9,29.92,North,-999,-999.0,0.0,-999,0.00,,,0.39,WeatherCatV1.21B27,2013-08-29 15:03:00,
2013-08-29 08:08:00,62.9,61.7,29.92,NE,46,2.0,3.0,96,0.00,,,0.39,WeatherCatV1.21B27,2013-08-29 15:08:00,
2013-08-29 08:13:00,62.9,61.7,29.92,ESE,123,1.0,2.0,96,0.00,,,0.40,WeatherCatV1.21B27,2013-08-29 15:13:00,
2013-08-29 08:18:00,62.8,61.6,29.93,SSE,159,0.0,0.0,96,0.00,,,0.40,WeatherCatV1.21B27,2013-08-29 15:18:00,
2013-08-29 08:23:00,62.8,61.6,29.93,SE,139,0.0,3.0,96,0.00,,,0.40,WeatherCatV1.21B27,2013-08-29 15:23:00,
2013-08-29 08:28:00,62.8,61.6,29.93,ESE,122,0.0,2.0,96,0.05,,,0.41,WeatherCatV1.21B27,2013-08-29 15:28:00,
2013-08-29 08:33:00,62.9,61.7,29.93,East,96,0.0,1.0,96,0.05,,,0.41,WeatherCatV1.21B27,2013-08-29 15:33:00,
2013-08-29 08:38:00,62.8,61.6,29.93,ENE,69,0.0,1.0,96,0.05,,,0.42,WeatherCatV1.21B27,2013-08-29 15:38:00,
2013-08-29 08:43:00,62.8,61.6,29.93,ENE,69,2.0,3.0,96,0.05,,,0.42,WeatherCatV1.21B27,2013-08-29 15:43:00,
2013-08-29 08:48:00,62.8,61.6,29.93,NE,54,1.0,3.0,96,0.07,,,0.43,WeatherCatV1.21B27,2013-08-29 15:48:00,
2013-08-29 08:53:00,62.8,61.6,29.92,NE,49,2.0,6.0,96,0.09,,,0.44,WeatherCatV1.21B27,2013-08-29 15:53:00,
2013-08-29 08:58:00,62.7,61.5,29.92,ENE,67,0.0,5.0,96,0.25,,,0.46,WeatherCatV1.21B27,2013-08-29 15:58:00,
2013-08-29 09:03:00,62.7,61.5,29.92,ENE,59,3.0,5.0,96,0.17,,,0.47,WeatherCatV1.21B27,2013-08-29 16:03:00,
2013-08-29 09:08:00,62.7,61.5,29.91,ESE,109,0.0,4.0,96,0.08,,,0.47,WeatherCatV1.21B27,2013-08-29 16:08:00,
2013-08-29 09:13:00,62.8,61.6,29.92,ESE,115,2.0,4.0,96,0.05,,,0.47,WeatherCatV1.21B27,2013-08-29 16:13:00,
2013-08-29 09:18:00,62.9,61.7,29.92,SE,127,4.0,5.0,96,0.00,,,0.47,WeatherCatV1.21B27,2013-08-29 16:18:00,
2013-08-29 09:23:00,63.0,61.8,29.92,NE,50,2.0,5.0,96,0.00,,,0.47,WeatherCatV1.21B27,2013-08-29 16:23:00,
2013-08-29 09:28:00,63.1,61.9,29.92,ENE,65,1.0,4.0,96,0.00,,,0.47,WeatherCatV1.21B27,2013-08-29 16:28:00,
2013-08-29 09:33:00,63.1,61.9,29.92,NE,52,2.0,6.0,96,0.00,,,0.47,WeatherCatV1.21B27,2013-08-29 16:33:00,
2013-08-29 09:38:00,63.2,62.0,29.92,NE,39,2.0,3.0,96,0.00,,,0.48,WeatherCatV1.21B27,2013-08-29 16:38:00,
2013-08-29 09:43:00,63.2,61.7,29.92,ENE,65,2.0,7.0,95,0.00,,,0.48,WeatherCatV1.21B27,2013-08-29 16:43:00,
2013-08-29 09:48:00,63.2,61.7,29.91,ENE,75,1.0,3.0,95,0.00,,,0.48,WeatherCatV1.21B27,2013-08-29 16:48:00,
2013-08-29 09:53:00,63.2,61.7,29.91,SE,128,0.0,9.0,95,0.04,,,0.49,WeatherCatV1.21B27,2013-08-29 16:53:00,
2013-08-29 09:58:00,63.3,61.8,29.91,NE,39,5.0,5.0,95,0.04,,,0.49,WeatherCatV1.21B27,2013-08-29 16:58:00,
2013-08-29 10:03:00,63.4,61.6,29.90,NE,46,1.0,3.0,94,0.04,,,0.49,WeatherCatV1.21B27,2013-08-29 17:03:00,
2013-08-29 10:08:00,63.5,62.0,29.91,ENE,57,0.0,1.0,95,0.04,,,0.49,WeatherCatV1.21B27,2013-08-29 17:08:00,
2013-08-29 10:13:00,63.6,61.8,29.91,ESE,109,0.0,6.0,94,0.00,,,0.49,WeatherCatV1.21B27,2013-08-29 17:13:00,
2013-08-29 10:18:00,63.8,62.0,29.91,East,87,0.0,1.0,94,0.00,,,0.49,WeatherCatV1.21B27,2013-08-29 17:18:00,
2013-08-29 10:23:00,63.9,62.1,29.91,East,88,2.0,2.0,94,0.00,,,0.49,WeatherCatV1.21B27,2013-08-29 17:23:00,
2013-08-29 10:28:00,63.9,61.8,29.92,East,96,2.0,5.0,93,0.00,,,0.49,WeatherCatV1.21B27,2013-08-29 17:28:00,
2013-08-29 10:33:00,64.0,62.2,29.92,SE,140,0.0,3.0,94,0.00,,,0.49,WeatherCatV1.21B27,2013-08-29 17:33:00,
2013-08-29 10:38:00,64.0,61.9,29.92,East,92,2.0,9.0,93,0.00,,,0.49,WeatherCatV1.21B27,2013-08-29 17:38:00,
2013-08-29 10:43:00,64.1,62.0,29.92,ESE,122,5.0,7.0,93,0.00,,,0.49,WeatherCatV1.21B27,2013-08-29 17:43:00,
2013-08-29 10:48:00,64.2,61.8,29.91,NE,47,3.0,8.0,92,0.00,,,0.49,WeatherCatV1.21B27,2013-08-29 17:48:00,
2013-08-29 10:53:00,64.3,62.2,29.91,East,82,1.0,3.0,93,0.00,,,0.49,WeatherCatV1.21B27,2013-08-29 17:53:00,
2013-08-29 10:58:00,64.7,62.6,29.91,ESE,118,0.0,2.0,93,0.00,,,0.49,WeatherCatV1.21B27,2013-08-29 17:58:00,
2013-08-29 11:03:00,65.1,63.0,29.92,ESE,120,0.0,1.0,93,0.00,,,0.49,WeatherCatV1.21B27,2013-08-29 18:03:00,
2013-08-29 11:08:00,65.2,62.8,29.93,SSW,199,7.0,8.0,92,0.00,,,0.49,WeatherCatV1.21B27,2013-08-29 18:08:00,
2013-08-29 11:13:00,64.8,62.7,29.95,WSW,255,4.0,9.0,93,0.79,,,0.53,WeatherCatV1.21B27,2013-08-29 18:13:00,
2013-08-29 11:18:00,64.6,62.8,29.95,SW,217,4.0,6.0,94,0.12,,,0.54,WeatherCatV1.21B27,2013-08-29 18:18:00,
2013-08-29 11:23:00,64.5,63.0,29.95,SW,227,2.0,3.0,95,0.12,,,0.55,WeatherCatV1.21B27,2013-08-29 18:23:00,
2013-08-29 11:28:00,64.7,63.2,29.95,SE,145,0.0,1.0,95,0.06,,,0.55,WeatherCatV1.21B27,2013-08-29 18:28:00,
2013-08-29 11:33:00,64.8,63.3,29.95,SSW,200,0.0,3.0,95,0.04,,,0.55,WeatherCatV1.21B27,2013-08-29 18:33:00,
2013-08-29 11:38:00,65.0,63.2,29.95,ESE,121,0.0,1.0,94,0.00,,,0.55,WeatherCatV1.21B27,2013-08-29 18:38:00,
2013-08-29 11:43:00,65.1,63.3,29.95,SE,143,1.0,2.0,94,0.00,,,0.55,WeatherCatV1.21B27,2013-08-29 18:43:00,
2013-08-29 11:48:00,65.2,63.4,29.95,ESE,119,0.0,3.0,94,0.00,,,0.55,WeatherCatV1.21B27,2013-08-29 18:48:00,
2013-08-29 11:53:00,65.4,63.6,29.95,SSE,166,2.0,2.0,94,0.00,,,0.55,WeatherCatV1.21B27,2013-08-29 18:53:00,
2013-08-29 11:58:00,65.6,63.5,29.95,SE,142,0.0,2.0,93,0.00,,,0.55,WeatherCatV1.21B27,2013-08-29 18:58:00,
2013-08-29 12:03:00,66.2,64.1,29.95,SE,124,0.0,3.0,93,0.00,,,0.55,WeatherCatV1.21B27,2013-08-29 19:03:00,
2013-08-29 12:08:00,66.5,64.1,29.96,SE,139,0.0,2.0,92,0.00,,,0.55,WeatherCatV1.21B27,2013-08-29 19:08:00,
2013-08-29 12:13:00,66.6,64.2,29.98,SW,229,3.0,7.0,92,0.00,,,0.55,WeatherCatV1.21B27,2013-08-29 19:13:00,
2013-08-29 12:18:00,66.4,64.0,29.97,SW,226,3.0,4.0,92,0.00,,,0.56,WeatherCatV1.21B27,2013-08-29 19:18:00,
2013-08-29 12:23:00,66.2,64.1,29.97,South,190,0.0,3.0,93,0.09,,,0.57,WeatherCatV1.21B27,2013-08-29 19:23:00,
2013-08-29 12:28:00,66.3,64.2,29.97,ESE,118,0.0,2.0,93,0.09,,,0.57,WeatherCatV1.21B27,2013-08-29 19:28:00,
2013-08-29 12:33:00,66.5,64.4,29.97,SSW,197,0.0,4.0,93,0.05,,,0.57,WeatherCatV1.21B27,2013-08-29 19:33:00,
2013-08-29 12:38:00,66.7,64.9,29.97,SSW,203,1.0,3.0,94,0.04,,,0.57,WeatherCatV1.21B27,2013-08-29 19:38:00,
2013-08-29 12:43:00,67.0,64.9,29.98,SW,221,2.0,3.0,93,0.00,,,0.57,WeatherCatV1.21B27,2013-08-29 19:43:00,
2013-08-29 12:48:00,67.0,64.6,29.97,SE,129,3.0,3.0,92,0.00,,,0.58,WeatherCatV1.21B27,2013-08-29 19:48:00,
2013-08-29 12:53:00,66.7,64.3,29.98,SSE,166,3.0,4.0,92,0.10,,,0.59,WeatherCatV1.21B27,2013-08-29 19:53:00,
2013-08-29 12:58:00,66.4,64.0,29.98,SSW,201,0.0,6.0,92,0.10,,,0.59,WeatherCatV1.21B27,2013-08-29 19:58:00,
2013-08-29 13:03:00,66.2,63.8,29.98,SSW,208,5.0,6.0,92,0.06,,,0.59,WeatherCatV1.21B27,2013-08-29 20:03:00,
2013-08-29 13:08:00,66.1,63.7,29.98,SE,146,3.0,4.0,92,0.22,,,0.61,WeatherCatV1.21B27,2013-08-29 20:08:00,
2013-08-29 13:13:00,66.0,63.9,29.98,SE,139,1.0,3.0,93,0.14,,,0.62,WeatherCatV1.21B27,2013-08-29 20:13:00,
2013-08-29 13:18:00,66.0,64.2,29.98,SE,124,0.0,1.0,94,0.06,,,0.62,WeatherCatV1.21B27,2013-08-29 20:18:00,
2013-08-29 13:23:00,65.9,64.1,29.98,ESE,109,0.0,3.0,94,0.04,,,0.62,WeatherCatV1.21B27,2013-08-29 20:23:00,
2013-08-29 13:28:00,65.9,64.1,29.98,SE,133,0.0,0.0,94,0.04,,,0.63,WeatherCatV1.21B27,2013-08-29 20:28:00,
2013-08-29 13:33:00,66.1,64.3,29.98,SSW,201,0.0,1.0,94,0.04,,,0.63,WeatherCatV1.21B27,2013-08-29 20:33:00,
2013-08-29 13:38:00,66.5,64.7,29.98,ENE,64,0.0,4.0,94,0.04,,,0.63,WeatherCatV1.21B27,2013-08-29 20:38:00,
2013-08-29 13:43:00,66.8,65.0,29.98,SE,134,2.0,3.0,94,0.00,,,0.63,WeatherCatV1.21B27,2013-08-29 20:43:00,
2013-08-29 13:48:00,67.2,64.8,29.98,ESE,117,4.0,5.0,92,0.00,,,0.63,WeatherCatV1.21B27,2013-08-29 20:48:00,
2013-08-29 13:53:00,67.6,65.2,29.98,East,101,1.0,2.0,92,0.00,,,0.63,WeatherCatV1.21B27,2013-08-29 20:53:00,
2013-08-29 13:58:00,68.4,66.0,29.98,SE,146,1.0,1.0,92,0.00,,,0.63,WeatherCatV1.21B27,2013-08-29 20:58:00,
2013-08-29 14:03:00,69.0,66.6,29.98,ESE,115,0.0,1.0,92,0.00,,,0.63,WeatherCatV1.21B27,2013-08-29 21:03:00,
2013-08-29 14:08:00,69.8,67.1,29.98,ESE,115,0.0,0.0,91,0.00,,,0.63,WeatherCatV1.21B27,2013-08-29 21:08:00,
2013-08-29 14:13:00,70.4,66.0,29.98,ENE,67,3.0,4.0,86,0.00,,,0.63,WeatherCatV1.21B27,2013-08-29 21:13:00,
2013-08-29 14:18:00,70.4,65.7,29.98,ESE,103,0.0,2.0,85,0.00,,,0.63,WeatherCatV1.21B27,2013-08-29 21:18:00,
2013-08-29 14:23:00,70.3,65.6,29.99,SE,136,1.0,5.0,85,0.00,,,0.63,WeatherCatV1.21B27,2013-08-29 21:23:00,
2013-08-29 14:28:00,70.7,66.0,29.99,ESE,116,4.0,5.0,85,0.00,,,0.63,WeatherCatV1.21B27,2013-08-29 21:28:00,
2013-08-29 14:33:00,70.6,66.2,29.99,SE,146,1.0,2.0,86,0.00,,,0.63,WeatherCatV1.21B27,2013-08-29 21:33:00,
2013-08-29 14:38:00,70.6,65.9,29.99,NE,52,2.0,5.0,85,0.00,,,0.63,WeatherCatV1.21B27,2013-08-29 21:38:00,
2013-08-29 14:43:00,70.5,65.8,29.99,SE,139,0.0,3.0,85,0.00,,,0.63,WeatherCatV1.21B27,2013-08-29 21:43:00,
2013-08-29 14:48:00,70.9,66.5,29.98,ESE,114,2.0,2.0,86,0.00,,,0.63,WeatherCatV1.21B27,2013-08-29 21:48:00,
2013-08-29 14:53:00,71.2,66.4,29.98,NE,50,3.0,3.0,85,0.00,,,0.63,WeatherCatV1.21B27,2013-08-29 21:53:00,
2013-08-29 14:58:00,70.9,66.2,29.98,SE,134,0.0,4.0,85,0.00,,,0.63,WeatherCatV1.21B27,2013-08-29 21:58:00,
2013-08-29 15:03:00,71.2,66.4,29.98,ESE,108,1.0,3.0,85,0.00,,,0.63,WeatherCatV1.21B27,2013-08-29 22:03:00,
2013-08-29 15:08:00,71.3,65.5,29.99,SE,136,2.0,4.0,82,0.00,,,0.63,WeatherCatV1.21B27,2013-08-29 22:08:00,
2013-08-29 15:13:00,71.5,66.1,29.99,East,79,2.0,3.0,83,0.00,,,0.63,WeatherCatV1.21B27,2013-08-29 22:13:00,
2013-08-29 15:18:00,72.1,66.6,29.98,SE,145,4.0,4.0,83,0.00,,,0.63,WeatherCatV1.21B27,2013-08-29 22:18:00,
2013-08-29 15:23:00,73.1,67.3,29.98,SSE,155,2.0,4.0,82,0.00,,,0.63,WeatherCatV1.21B27,2013-08-29 22:23:00,
2013-08-29 15:28:00,73.4,66.1,29.98,SE,140,1.0,5.0,78,0.00,,,0.63,WeatherCatV1.21B27,2013-08-29 22:28:00,
2013-08-29 15:33:00,73.9,66.6,29.98,NE,34,1.0,5.0,78,0.00,,,0.63,WeatherCatV1.21B27,2013-08-29 22:33:00,
2013-08-29 15:38:00,74.0,66.7,29.97,SE,133,1.0,2.0,78,0.00,,,0.63,WeatherCatV1.21B27,2013-08-29 22:38:00,
2013-08-29 15:43:00,74.9,66.0,29.97,ENE,72,0.0,4.0,74,0.00,,,0.63,WeatherCatV1.21B27,2013-08-29 22:43:00,
2013-08-29 15:48:00,75.1,65.8,29.97,NE,50,1.0,2.0,73,0.00,,,0.63,WeatherCatV1.21B27,2013-08-29 22:48:00,
2013-08-29 15:53:00,75.2,65.9,29.97,East,89,3.0,5.0,73,0.00,,,0.63,WeatherCatV1.21B27,2013-08-29 22:53:00,
2013-08-29 15:58:00,74.9,66.4,29.97,SE,124,1.0,1.0,75,0.00,,,0.63,WeatherCatV1.21B27,2013-08-29 22:58:00,
2013-08-29 16:03:00,75.7,67.2,29.97,East,94,2.0,3.0,75,0.00,,,0.63,WeatherCatV1.21B27,2013-08-29 23:03:00,
2013-08-29 16:08:00,75.7,67.2,29.96,NNE,25,2.0,3.0,75,0.00,,,0.63,WeatherCatV1.21B27,2013-08-29 23:08:00,
2013-08-29 16:13:00,75.2,66.7,29.96,ENE,59,2.0,3.0,75,0.00,,,0.63,WeatherCatV1.21B27,2013-08-29 23:13:00,
2013-08-29 16:18:00,75.1,66.2,29.96,ESE,121,0.0,2.0,74,0.00,,,0.63,WeatherCatV1.21B27,2013-08-29 23:18:00,
2013-08-29 16:23:00,75.6,65.9,29.96,ESE,116,0.0,4.0,72,0.00,,,0.63,WeatherCatV1.21B27,2013-08-29 23:23:00,
2013-08-29 16:28:00,75.2,65.9,29.96,ESE,113,0.0,2.0,73,0.00,,,0.63,WeatherCatV1.21B27,2013-08-29 23:28:00,
2013-08-29 16:33:00,74.9,65.6,29.97,ESE,118,1.0,3.0,73,0.00,,,0.63,WeatherCatV1.21B27,2013-08-29 23:33:00,
2013-08-29 16:38:00,74.6,66.1,29.96,NE,46,1.0,1.0,75,0.00,,,0.63,WeatherCatV1.21B27,2013-08-29 23:38:00,
2013-08-29 16:43:00,74.0,65.6,29.96,ENE,59,0.0,2.0,75,0.00,,,0.63,WeatherCatV1.21B27,2013-08-29 23:43:00,
2013-08-29 16:48:00,73.8,65.8,29.96,ESE,113,0.0,1.0,76,0.00,,,0.63,WeatherCatV1.21B27,2013-08-29 23:48:00,
2013-08-29 16:53:00,73.6,65.9,29.97,ESE,111,0.0,1.0,77,0.00,,,0.63,WeatherCatV1.21B27,2013-08-29 23:53:00,
2013-08-29 16:58:00,73.3,66.0,29.97,SE,145,1.0,1.0,78,0.00,,,0.64,WeatherCatV1.21B27,2013-08-29 23:58:00,
2013-08-29 17:03:00,72.8,66.6,29.98,NNW,335,2.0,2.0,81,0.76,,,0.73,WeatherCatV1.21B27,2013-08-30 00:03:00,
2013-08-29 17:08:00,70.8,66.7,29.97,North,349,0.0,3.0,87,0.94,,,0.88,WeatherCatV1.21B27,2013-08-30 00:08:00,
2013-08-29 17:13:00,69.1,65.1,29.98,SW,236,2.0,6.0,87,0.16,,,0.89,WeatherCatV1.21B27,2013-08-30 00:13:00,
2013-08-29 17:18:00,67.7,64.3,30.00,WSW,252,9.0,28.0,89,1.75,,,1.03,WeatherCatV1.21B27,2013-08-30 00:18:00,
2013-08-29 17:23:00,65.5,62.8,29.99,West,273,1.0,4.0,91,0.41,,,1.12,WeatherCatV1.21B27,2013-08-30 00:23:00,
2013-08-29 17:28:00,65.0,62.0,29.99,SSW,205,5.0,14.0,90,0.09,,,1.12,WeatherCatV1.21B27,2013-08-30 00:28:00,
2013-08-29 17:33:00,64.9,62.2,30.00,South,188,1.0,7.0,91,0.05,,,1.12,WeatherCatV1.21B27,2013-08-30 00:33:00,
2013-08-29 17:38:00,65.0,62.6,30.00,SSW,201,4.0,7.0,92,0.04,,,1.12,WeatherCatV1.21B27,2013-08-30 00:38:00,
2013-08-29 17:43:00,65.3,62.9,29.99,SSW,209,5.0,7.0,92,0.00,,,1.12,WeatherCatV1.21B27,2013-08-30 00:43:00,
2013-08-29 17:48:00,65.4,63.3,29.99,South,188,4.0,5.0,93,0.00,,,1.12,WeatherCatV1.21B27,2013-08-30 00:48:00,
2013-08-29 17:53:00,65.3,63.2,30.00,SSE,156,2.0,5.0,93,0.00,,,1.12,WeatherCatV1.21B27,2013-08-30 00:53:00,
2013-08-29 17:58:00,65.7,63.9,30.00,SW,228,4.0,4.0,94,0.00,,,1.12,WeatherCatV1.21B27,2013-08-30 00:58:00,
2013-08-29 18:03:00,66.0,63.9,30.00,SSW,208,1.0,2.0,93,0.00,,,1.12,WeatherCatV1.21B27,2013-08-30 01:03:00,
2013-08-29 18:08:00,65.8,64.0,30.00,South,184,0.0,1.0,94,0.00,,,1.12,WeatherCatV1.21B27,2013-08-30 01:08:00,
2013-08-29 18:13:00,65.7,63.9,30.00,SSE,165,0.0,1.0,94,0.00,,,1.12,WeatherCatV1.21B27,2013-08-30 01:13:00,
2013-08-29 18:18:00,65.7,63.9,30.00,ESE,114,1.0,2.0,94,0.00,,,1.12,WeatherCatV1.21B27,2013-08-30 01:18:00,
2013-08-29 18:23:00,65.6,63.8,30.01,ESE,118,0.0,1.0,94,0.00,,,1.13,WeatherCatV1.21B27,2013-08-30 01:23:00,
2013-08-29 18:28:00,65.4,63.6,30.01,East,95,1.0,4.0,94,0.26,,,1.15,WeatherCatV1.21B27,2013-08-30 01:28:00,
2013-08-29 18:33:00,65.3,63.8,30.01,WSW,238,4.0,4.0,95,0.14,,,1.16,WeatherCatV1.21B27,2013-08-30 01:33:00,
2013-08-29 18:38:00,65.3,63.8,30.01,SSE,152,3.0,6.0,95,0.10,,,1.17,WeatherCatV1.21B27,2013-08-30 01:38:00,
2013-08-29 18:43:00,65.6,64.4,30.01,SSE,166,4.0,4.0,96,0.19,,,1.18,WeatherCatV1.21B27,2013-08-30 01:43:00,
2013-08-29 18:48:00,65.7,64.2,30.02,SE,140,1.0,5.0,95,0.19,,,1.20,WeatherCatV1.21B27,2013-08-30 01:48:00,
2013-08-29 18:53:00,65.7,64.2,30.01,SSW,208,1.0,6.0,95,0.13,,,1.21,WeatherCatV1.21B27,2013-08-30 01:53:00,
2013-08-29 18:58:00,65.9,64.7,30.01,SSW,211,2.0,3.0,96,0.13,,,1.22,WeatherCatV1.21B27,2013-08-30 01:58:00,
2013-08-29 19:03:00,66.0,64.5,30.01,SE,125,1.0,4.0,95,0.08,,,1.22,WeatherCatV1.21B27,2013-08-30 02:03:00,
2013-08-29 19:08:00,66.1,64.6,30.01,ESE,107,0.0,4.0,95,0.05,,,1.22,WeatherCatV1.21B27,2013-08-30 02:08:00,
2013-08-29 19:13:00,66.2,64.7,30.02,ESE,117,0.0,2.0,95,0.00,,,1.22,WeatherCatV1.21B27,2013-08-30 02:13:00,
2013-08-29 19:18:00,66.2,64.7,30.02,SE,136,0.0,2.0,95,0.00,,,1.22,WeatherCatV1.21B27,2013-08-30 02:18:00,
2013-08-29 19:23:00,66.0,64.5,30.02,ESE,122,2.0,2.0,95,0.00,,,1.22,WeatherCatV1.21B27,2013-08-30 02:23:00,
2013-08-29 19:28:00,65.8,64.3,30.02,SW,224,3.0,4.0,95,0.00,,,1.22,WeatherCatV1.21B27,2013-08-30 02:28:00,
2013-08-29 19:33:00,65.7,64.2,30.02,SE,140,1.0,2.0,95,0.00,,,1.22,WeatherCatV1.21B27,2013-08-30 02:33:00,
2013-08-29 19:38:00,65.9,64.7,30.02,SE,140,1.0,2.0,96,0.00,,,1.22,WeatherCatV1.21B27,2013-08-30 02:38:00,
2013-08-29 19:43:00,65.7,64.2,30.02,SSE,150,2.0,3.0,95,0.00,,,1.22,WeatherCatV1.21B27,2013-08-30 02:43:00,
2013-08-29 19:48:00,65.6,64.1,30.02,SSW,198,0.0,3.0,95,0.00,,,1.22,WeatherCatV1.21B27,2013-08-30 02:48:00,
2013-08-29 19:53:00,65.6,64.1,30.03,SSE,166,0.0,1.0,95,0.00,,,1.22,WeatherCatV1.21B27,2013-08-30 02:53:00,
2013-08-29 19:58:00,65.5,64.3,30.03,SE,137,3.0,3.0,96,0.00,,,1.22,WeatherCatV1.21B27,2013-08-30 02:58:00,
2013-08-29 20:03:00,65.5,64.3,30.03,SSW,195,0.0,2.0,96,0.00,,,1.22,WeatherCatV1.21B27,2013-08-30 03:03:00,
2013-08-29 20:08:00,65.4,63.9,30.03,SE,146,0.0,4.0,95,0.00,,,1.22,WeatherCatV1.21B27,2013-08-30 03:08:00,
2013-08-29 20:13:00,65.3,64.1,30.03,ESE,119,0.0,0.0,96,0.00,,,1.22,WeatherCatV1.21B27,2013-08-30 03:13:00,
2013-08-29 20:18:00,65.3,64.1,30.03,SE,142,0.0,0.0,96,0.00,,,1.22,WeatherCatV1.21B27,2013-08-30 03:18:00,
2013-08-29 20:23:00,65.2,64.0,30.03,SE,128,0.0,0.0,96,0.00,,,1.22,WeatherCatV1.21B27,2013-08-30 03:23:00,
2013-08-29 20:28:00,65.2,64.0,30.04,SE,124,0.0,0.0,96,0.00,,,1.22,WeatherCatV1.21B27,2013-08-30 03:28:00,
2013-08-29 20:33:00,65.2,64.0,30.04,SE,124,0.0,0.0,96,0.00,,,1.22,WeatherCatV1.21B27,2013-08-30 03:33:00,
2013-08-29 20:38:00,65.2,64.0,30.04,SE,124,0.0,0.0,96,0.00,,,1.22,WeatherCatV1.21B27,2013-08-30 03:38:00,
2013-08-29 20:43:00,65.2,64.0,30.04,ESE,104,0.0,0.0,96,0.00,,,1.22,WeatherCatV1.21B27,2013-08-30 03:43:00,
2013-08-29 20:48:00,65.1,63.9,30.04,SE,133,0.0,0.0,96,0.00,,,1.22,WeatherCatV1.21B27,2013-08-30 03:48:00,
2013-08-29 20:53:00,65.1,63.9,30.04,East,101,0.0,1.0,96,0.00,,,1.22,WeatherCatV1.21B27,2013-08-30 03:53:00,
2013-08-29 20:58:00,65.0,63.8,30.04,ESE,111,1.0,1.0,96,0.00,,,1.22,WeatherCatV1.21B27,2013-08-30 03:58:00,
2013-08-29 21:01:00,65.0,63.8,30.04,ESE,105,0.0,0.0,96,0.00,,,1.22,WeatherCatV1.21B27,2013-08-30 04:01:00,
2013-08-29 21:06:00,65.0,63.8,30.04,SE,142,1.0,1.0,96,0.00,,,1.22,WeatherCatV1.21B27,2013-08-30 04:06:00,
2013-08-29 21:11:00,65.0,63.8,30.04,South,169,1.0,1.0,96,0.00,,,1.22,WeatherCatV1.21B27,2013-08-30 04:11:00,
2013-08-29 21:16:00,65.1,63.9,30.04,SE,129,1.0,2.0,96,0.00,,,1.22,WeatherCatV1.21B27,2013-08-30 04:16:00,
2013-08-29 21:21:00,65.1,63.9,30.04,West,281,0.0,1.0,96,0.00,,,1.22,WeatherCatV1.21B27,2013-08-30 04:21:00,
2013-08-29 21:26:00,65.1,63.9,30.05,South,169,0.0,2.0,96,0.00,,,1.22,WeatherCatV1.21B27,2013-08-30 04:26:00,
2013-08-29 21:31:00,65.1,63.9,30.04,SW,218,0.0,0.0,96,0.00,,,1.23,WeatherCatV1.21B27,2013-08-30 04:31:00,
2013-08-29 21:36:00,65.2,64.0,30.04,ENE,59,0.0,1.0,96,0.30,,,1.25,WeatherCatV1.21B27,2013-08-30 04:36:00,
2013-08-29 21:41:00,65.2,64.0,30.04,East,89,0.0,0.0,96,0.10,,,1.26,WeatherCatV1.21B27,2013-08-30 04:41:00,
2013-08-29 21:46:00,65.1,63.9,30.04,SE,135,0.0,1.0,96,0.10,,,1.26,WeatherCatV1.21B27,2013-08-30 04:46:00,
2013-08-29 21:51:00,65.1,63.9,30.04,SSW,195,1.0,3.0,96,0.05,,,1.26,WeatherCatV1.21B27,2013-08-30 04:51:00,
2013-08-29 21:56:00,65.2,64.3,30.04,SSE,150,1.0,2.0,97,0.04,,,1.26,WeatherCatV1.21B27,2013-08-30 04:56:00,
2013-08-29 22:01:00,65.2,64.0,30.04,SSE,148,3.0,3.0,96,0.00,,,1.26,WeatherCatV1.21B27,2013-08-30 05:01:00,
2013-08-29 22:06:00,65.1,63.9,30.05,SSE,162,2.0,2.0,96,0.00,,,1.26,WeatherCatV1.21B27,2013-08-30 05:06:00,
2013-08-29 22:11:00,65.0,63.8,30.05,SSW,195,0.0,3.0,96,0.00,,,1.26,WeatherCatV1.21B27,2013-08-30 05:11:00,
2013-08-29 22:16:00,65.0,63.8,30.05,SSE,162,2.0,4.0,96,0.00,,,1.26,WeatherCatV1.21B27,2013-08-30 05:16:00,
2013-08-29 22:21:00,64.9,63.7,30.05,SE,139,3.0,4.0,96,0.00,,,1.26,WeatherCatV1.21B27,2013-08-30 05:21:00,
2013-08-29 22:26:00,64.9,63.7,30.05,SW,233,3.0,5.0,96,0.00,,,1.26,WeatherCatV1.21B27,2013-08-30 05:26:00,
2013-08-29 22:31:00,64.8,63.6,30.06,South,186,2.0,6.0,96,0.00,,,1.26,WeatherCatV1.21B27,2013-08-30 05:31:00,
2013-08-29 22:36:00,64.8,63.6,30.05,SW,229,3.0,6.0,96,0.32,,,1.29,WeatherCatV1.21B27,2013-08-30 05:36:00,
2013-08-29 22:41:00,64.8,63.6,30.06,SE,145,7.0,9.0,96,0.09,,,1.29,WeatherCatV1.21B27,2013-08-30 05:41:00,
2013-08-29 22:46:00,64.7,63.2,30.06,South,179,14.0,16.0,95,0.08,,,1.30,WeatherCatV1.21B27,2013-08-30 05:46:00,
2013-08-29 22:51:00,64.7,63.2,30.06,SW,221,4.0,9.0,95,0.07,,,1.30,WeatherCatV1.21B27,2013-08-30 05:51:00,
2013-08-29 22:56:00,64.6,62.8,30.06,SSE,156,3.0,10.0,94,0.04,,,1.30,WeatherCatV1.21B27,2013-08-30 05:56:00,
2013-08-29 23:01:00,64.4,62.6,30.06,East,79,4.0,5.0,94,0.00,,,1.30,WeatherCatV1.21B27,2013-08-30 06:01:00,
2013-08-29 23:06:00,64.3,62.5,30.06,SSE,167,5.0,9.0,94,0.00,,,1.30,WeatherCatV1.21B27,2013-08-30 06:06:00,
2013-08-29 23:11:00,64.2,62.4,30.06,SSE,158,3.0,6.0,94,0.00,,,1.30,WeatherCatV1.21B27,2013-08-30 06:11:00,
2013-08-29 23:16:00,64.1,62.3,30.07,South,186,3.0,7.0,94,0.00,,,1.30,WeatherCatV1.21B27,2013-08-30 06:16:00,
2013-08-29 23:21:00,64.1,62.6,30.07,SW,222,4.0,6.0,95,0.00,,,1.30,WeatherCatV1.21B27,2013-08-30 06:21:00,
2013-08-29 23:26:00,64.0,62.5,30.07,SSE,165,4.0,7.0,95,0.00,,,1.30,WeatherCatV1.21B27,2013-08-30 06:26:00,
2013-08-29 23:31:00,64.0,62.5,30.07,SSW,198,4.0,6.0,95,0.00,,,1.30,WeatherCatV1.21B27,2013-08-30 06:31:00,
2013-08-29 23:36:00,64.0,62.5,30.07,SW,217,3.0,5.0,95,0.00,,,1.30,WeatherCatV1.21B27,2013-08-30 06:36:00,
2013-08-29 23:41:00,64.0,62.5,30.07,SSE,163,3.0,5.0,95,0.00,,,1.30,WeatherCatV1.21B27,2013-08-30 06:41:00,
2013-08-29 23:46:00,64.0,62.5,30.07,SW,232,3.0,5.0,95,0.00,,,1.30,WeatherCatV1.21B27,2013-08-30 06:46:00,
2013-08-29 23:51:00,63.9,62.1,30.07,SSE,162,3.0,6.0,94,0.00,,,1.30,WeatherCatV1.21B27,2013-08-30 06:51:00,
2013-08-29 23:56:00,63.8,62.3,30.08,SW,226,2.0,4.0,95,0.00,,,1.30,WeatherCatV1.21B27,2013-08-30 06:56:00,